• In Germany
  • List of Countries
  • For 7 days
  • Water Temperature
  • Satellite Maps
  • Weather Map
  • Weather Widgets
  • user-avatar
    Login

    Hourly Weather Pasto

    Today, 22 July, Sunday

    Time Temperature Precipitation Wind Pressure Humidity
    00:00 +10°C° 0.1 mm 2 mps 549 mmHg 83%
    01:00 +10°C° 0.1 mm 2 mps 549 mmHg 85%
    02:00 +10°C° 0.1 mm 1 mps 549 mmHg 86%
    03:00 +10°C° 0.1 mm 1 mps 548 mmHg 87%
    04:00 +10°C° 0.1 mm 1 mps 548 mmHg 88%
    05:00 +10°C° 0.1 mm 1 mps 548 mmHg 87%
    06:00 +10°C° 0.1 mm 1 mps 549 mmHg 87%
    07:00 +10°C° 0.1 mm 1 mps 549 mmHg 86%
    08:00 +12°C° 0.1 mm 2 mps 550 mmHg 81%
    09:00 +13°C° 0.1 mm 2 mps 550 mmHg 76%
    10:00 +14°C° 0.1 mm 2 mps 551 mmHg 71%
    11:00 +14°C° 0.2 mm 2 mps 551 mmHg 70%
    12:00 +14°C° 0.2 mm 3 mps 551 mmHg 68%
    13:00 +14°C° 0.2 mm 3 mps 551 mmHg 67%
    14:00 +14°C° 0.3 mm 3 mps 551 mmHg 69%
    15:00 +14°C° 0.3 mm 2 mps 550 mmHg 71%
    16:00 +14°C° 0.3 mm 2 mps 549 mmHg 74%
    17:00 +13°C° 0.2 mm 2 mps 549 mmHg 78%
    18:00 +12°C° 0.2 mm 2 mps 549 mmHg 81%
    19:00 +11°C° 0.2 mm 1 mps 548 mmHg 85%
    20:00 +10°C° 0.1 mm 1 mps 548 mmHg 85%
    21:00 +10°C° 0.1 mm 1 mps 549 mmHg 86%
    22:00 +10°C° 0.1 mm 1 mps 549 mmHg 86%
    23:00 +9°C° 0 mm 2 mps 549 mmHg 85%

    Tomorrow, 23 July, Monday

    Time Temperature Precipitation Wind Pressure Humidity
    00:00 +9°C° 0 mm 2 mps 549 mmHg 85%
    01:00 +9°C° 0 mm 2 mps 549 mmHg 85%
    02:00 +9°C° 0 mm 2 mps 548 mmHg 85%
    03:00 +8°C° 0 mm 2 mps 548 mmHg 86%
    04:00 +8°C° 0 mm 2 mps 547 mmHg 86%
    05:00 +9°C° 0 mm 2 mps 548 mmHg 84%
    06:00 +9°C° 0 mm 2 mps 548 mmHg 82%
    07:00 +10°C° 0 mm 2 mps 549 mmHg 81%
    08:00 +12°C° 0 mm 2 mps 550 mmHg 75%
    09:00 +13°C° 0 mm 3 mps 551 mmHg 69%
    10:00 +14°C° 0 mm 3 mps 552 mmHg 64%
    11:00 +14°C° 0.2 mm 3 mps 552 mmHg 64%
    12:00 +14°C° 0.2 mm 3 mps 552 mmHg 65%
    13:00 +14°C° 0.2 mm 3 mps 551 mmHg 65%
    14:00 +14°C° 0.2 mm 3 mps 551 mmHg 66%
    15:00 +14°C° 0.2 mm 3 mps 550 mmHg 67%
    16:00 +14°C° 0.2 mm 3 mps 550 mmHg 68%
    17:00 +12°C° 0.1 mm 3 mps 549 mmHg 74%
    18:00 +12°C° 0.1 mm 2 mps 549 mmHg 80%
    19:00 +9°C° 0.1 mm 2 mps 548 mmHg 87%
    20:00 +9°C° 0.1 mm 2 mps 549 mmHg 85%
    21:00 +9°C° 0.1 mm 2 mps 549 mmHg 83%
    22:00 +8°C° 0.1 mm 2 mps 549 mmHg 81%
    23:00 +8°C° 0 mm 2 mps 549 mmHg 81%

    Day after tomorrow, 24 July, Tuesday

    Time Temperature Precipitation Wind Pressure Humidity
    00:00 +9°C° 0 mm 2 mps 549 mmHg 82%
    01:00 +9°C° 0 mm 2 mps 549 mmHg 82%
    02:00 +9°C° 0 mm 2 mps 549 mmHg 83%
    03:00 +8°C° 0 mm 2 mps 549 mmHg 84%
    04:00 +8°C° 0 mm 2 mps 548 mmHg 84%
    05:00 +9°C° 0 mm 2 mps 549 mmHg 83%
    06:00 +9°C° 0 mm 2 mps 549 mmHg 82%
    07:00 +9°C° 0 mm 2 mps 549 mmHg 82%
    08:00 +12°C° 0 mm 2 mps 550 mmHg 76%
    09:00 +12°C° 0 mm 3 mps 552 mmHg 70%
    10:00 +14°C° 0 mm 4 mps 553 mmHg 64%
    11:00 +14°C° 0.2 mm 4 mps 552 mmHg 64%
    12:00 +14°C° 0.2 mm 4 mps 552 mmHg 63%
    13:00 +14°C° 0.2 mm 3 mps 552 mmHg 63%
    14:00 +14°C° 0.1 mm 3 mps 552 mmHg 64%
    15:00 +14°C° 0.1 mm 3 mps 551 mmHg 66%
    16:00 +13°C° 0.1 mm 3 mps 550 mmHg 67%
    17:00 +12°C° 0.2 mm 3 mps 550 mmHg 73%
    18:00 +10°C° 0.2 mm 2 mps 549 mmHg 79%
    19:00 +9°C° 0.2 mm 2 mps 549 mmHg 85%
    20:00 +9°C° 0 mm 2 mps 549 mmHg 84%
    21:00 +9°C° 0 mm 2 mps 550 mmHg 83%
    22:00 +9°C° 0 mm 2 mps 550 mmHg 82%
    23:00 +9°C° 0 mm 2 mps 550 mmHg 82%

    25 July, Wednesday

    Time Temperature Precipitation Wind Pressure Humidity
    00:00 +9°C° 0 mm 2 mps 550 mmHg 82%
    01:00 +9°C° 0 mm 2 mps 550 mmHg 82%
    02:00 +9°C° 0 mm 2 mps 549 mmHg 83%
    03:00 +9°C° 0 mm 2 mps 549 mmHg 84%
    04:00 +9°C° 0 mm 2 mps 549 mmHg 85%
    05:00 +9°C° 0 mm 2 mps 549 mmHg 84%
    06:00 +9°C° 0 mm 2 mps 550 mmHg 82%
    07:00 +9°C° 0 mm 2 mps 550 mmHg 81%
    08:00 +12°C° 0 mm 2 mps 551 mmHg 76%
    09:00 +12°C° 0 mm 3 mps 552 mmHg 70%
    10:00 +13°C° 0 mm 3 mps 553 mmHg 65%
    11:00 +13°C° 0.2 mm 3 mps 552 mmHg 67%
    12:00 +13°C° 0.2 mm 3 mps 552 mmHg 69%
    13:00 +13°C° 0.2 mm 3 mps 551 mmHg 70%
    14:00 +13°C° 0.2 mm 3 mps 551 mmHg 70%
    15:00 +13°C° 0.2 mm 3 mps 550 mmHg 70%
    16:00 +13°C° 0.2 mm 3 mps 550 mmHg 69%
    17:00 +13°C° 0.1 mm 2 mps 550 mmHg 74%
    18:00 +10°C° 0.1 mm 2 mps 549 mmHg 79%
    19:00 +9°C° 0.1 mm 2 mps 549 mmHg 84%
    20:00 +9°C° 0 mm 2 mps 549 mmHg 83%
    21:00 +9°C° 0 mm 2 mps 550 mmHg 83%
    22:00 +9°C° 0 mm 2 mps 550 mmHg 82%
    23:00 +9°C° 0 mm 2 mps 550 mmHg 82%

    26 July, Thursday

    Time Temperature Precipitation Wind Pressure Humidity
    00:00 +9°C° 0 mm 2 mps 549 mmHg 82%
    01:00 +9°C° 0 mm 2 mps 549 mmHg 82%
    02:00 +9°C° 0 mm 2 mps 549 mmHg 82%
    03:00 +9°C° 0 mm 2 mps 549 mmHg 83%
    04:00 +8°C° 0 mm 2 mps 548 mmHg 83%
    05:00 +9°C° 0 mm 2 mps 549 mmHg 82%
    06:00 +9°C° 0 mm 2 mps 549 mmHg 82%
    07:00 +9°C° 0 mm 2 mps 550 mmHg 81%
    08:00 +12°C° 0 mm 2 mps 551 mmHg 75%
    09:00 +12°C° 0 mm 3 mps 552 mmHg 69%
    10:00 +14°C° 0 mm 3 mps 553 mmHg 62%
    11:00 +13°C° 0.2 mm 3 mps 552 mmHg 65%
    12:00 +13°C° 0.2 mm 3 mps 552 mmHg 67%
    13:00 +14°C° 0.2 mm 2 mps 551 mmHg 70%
    14:00 +13°C° 0.3 mm 2 mps 551 mmHg 71%
    15:00 +13°C° 0.3 mm 2 mps 550 mmHg 73%
    16:00 +13°C° 0.3 mm 2 mps 550 mmHg 75%
    17:00 +12°C° 0.2 mm 2 mps 549 mmHg 78%
    18:00 +10°C° 0.2 mm 2 mps 549 mmHg 82%
    19:00 +10°C° 0.2 mm 1 mps 549 mmHg 86%
    20:00 +9°C° 0 mm 2 mps 549 mmHg 85%
    21:00 +9°C° 0 mm 2 mps 549 mmHg 84%
    22:00 +8°C° 0 mm 2 mps 550 mmHg 83%
    23:00 +8°C° 0 mm 2 mps 549 mmHg 83%

    27 July, Friday

    Time Temperature Precipitation Wind Pressure Humidity
    00:00 +8°C° 0 mm 2 mps 549 mmHg 83%
    01:00 +8°C° 0 mm 2 mps 549 mmHg 83%
    02:00 +8°C° 0 mm 2 mps 549 mmHg 83%
    03:00 +8°C° 0 mm 2 mps 548 mmHg 83%
    04:00 +8°C° 0 mm 2 mps 548 mmHg 83%
    05:00 +8°C° 0 mm 2 mps 549 mmHg 83%
    06:00 +9°C° 0 mm 2 mps 549 mmHg 82%
    07:00 +9°C° 0 mm 2 mps 549 mmHg 81%
    08:00 +12°C° 0 mm 2 mps 551 mmHg 74%
    09:00 +12°C° 0 mm 3 mps 552 mmHg 68%
    10:00 +14°C° 0 mm 3 mps 553 mmHg 61%
    11:00 +14°C° 0.1 mm 3 mps 552 mmHg 62%
    12:00 +14°C° 0.1 mm 3 mps 552 mmHg 64%
    13:00 +14°C° 0.1 mm 3 mps 551 mmHg 65%
    14:00 +13°C° 0.3 mm 3 mps 551 mmHg 68%
    15:00 +14°C° 0.3 mm 2 mps 550 mmHg 72%
    16:00 +13°C° 0.3 mm 2 mps 549 mmHg 75%
    17:00 +12°C° 0.2 mm 2 mps 549 mmHg 80%
    18:00 +10°C° 0.2 mm 2 mps 549 mmHg 84%
    19:00 +10°C° 0.2 mm 1 mps 549 mmHg 88%
    20:00 +9°C° 0.1 mm 2 mps 549 mmHg 87%
    21:00 +8°C° 0.1 mm 2 mps 549 mmHg 86%
    22:00 +8°C° 0.1 mm 2 mps 549 mmHg 85%
    23:00 +8°C° 0 mm 2 mps 549 mmHg 85%
    Show more